Regional Weather Roundup
Issued by NWS

Home | Current Version | Previous Version | Graphics & Text | Print | Product List | Glossary On
Versions: 1 2 3 4 5 6 7 8 9 10 11 12 13 14 15 16 17 18 19 20 21 22 23 24 25 26 27 28 29 30 31 32 33 34 35 36 37 38 39 40 41 42 43 44 45 46 47 48 49 50
000
ASUS43 KDTX 152110
RWRMI
MICHIGAN HOURLY REGIONAL WEATHER ROUNDUP
NATIONAL WEATHER SERVICE DETROIT/PONTIAC MI
500 PM EDT MON SEP 15 2014

NOTE: "FAIR" INDICATES FEW OR NO CLOUDS BELOW 12,000 FEET WITH NO
SIGNIFICANT WEATHER AND/OR OBSTRUCTION TO VISIBILITY.

MIZ047>049-052>055-059>063-066>070-074>076-081>083-152200-
SOUTHEAST LOWER MICHIGAN

CITY           SKY/WX    TMP DP  RH WIND       PRES   REMARKS
ADRIAN         CLOUDY    60  50  69 CALM      30.08F
ALMA           LGT RAIN  57  54  90 N8        30.08S
ANN ARBOR      CLOUDY    61  50  67 CALM      30.07F
BAD AXE        CLOUDY    58  54  87 NW8       30.08F
CARO           CLOUDY    56  53  87 N5        30.07F
DETROIT CITY   CLOUDY    61  49  64 S5        30.08F
DETROIT        CLOUDY    60  51  72 SW5       30.09F
FLINT          PTSUNNY   65  48  54 W3        30.07F
GROSSE ILE     CLOUDY    61  54  77 CALM      30.07F
HILLSDALE      CLOUDY    60  50  68 SW5       30.07F
HOWELL         CLOUDY    60  47  63 SW7       30.07F

CITY           SKY/WX    TMP DP  RH WIND       PRES   REMARKS
JACKSON        CLOUDY    61  49  64 W5        30.07F
LAMBERTVILLE   CLOUDY    61  52  72 CALM      30.08F
LANSING        CLOUDY    61  49  64 SW10      30.07F
LAPEER         CLOUDY    62  46  55 CALM      30.07F
MASON          CLOUDY    60  49  66 SW5       30.07F
MONROE         PTSUNNY   61  52  72 CALM      30.07F
MT. CLEMENS    CLOUDY    60  48  63 S5        30.06F
PONTIAC        PTSUNNY   60  48  64 S7        30.07F
PORT HOPE        N/A     59  52  77 W6        30.06F
PORT HURON     CLOUDY    61  54  77 SW5       30.09F
TRI CITIES     CLOUDY    59  52  77 N8        30.09F
TROY           CLOUDY    62  47  58 SW6       30.10F
SAGINAW HB     CLOUDY    59  52  77 N3        30.07F
$$
MIZ043>046-050>051-056>058-064>065-071>073-077>080-152200-
SOUTHWEST LOWER MICHIGAN

CITY           SKY/WX    TMP DP  RH WIND       PRES   REMARKS
BATTLE CREEK   CLOUDY    61  50  67 SW7       30.08F
BENTON HARBOR  CLOUDY    60  51  72 SW9       30.07F
BIG RAPIDS     RAIN      54  54  99 CALM      30.09S
COLDWATER      CLOUDY    61  51  69 SW6       30.08S
FREMONT        DRIZZLE   54  52  95 N5        30.09S
HOLLAND        CLOUDY    61  55  81 CALM      30.07F
GRAND RAPIDS   LGT RAIN  60  51  72 NW7       30.08S
IONIA          LGT RAIN  60  53  76 N3        30.06F
KALAMAZOO      LGT RAIN  61  50  67 SW7       30.08F
LUDINGTON      LGT RAIN  55  52  92 NW3       30.11S
MARSHALL       CLOUDY    60  50  69 SW5       30.07F
MOUNT PLEASANT RAIN      56  53  90 N3        30.08S
MUSKEGON       LGT RAIN  58  53  84 N9        30.09S
SOUTH HAVEN    LGT RAIN  61  54  77 SW6       30.07S
$$
MIZ016>042-152200-
NORTHERN LOWER MICHIGAN

CITY           SKY/WX    TMP DP  RH WIND       PRES   REMARKS
ALPENA         FAIR      60  46  59 VRB5      30.07R
BEAVER ISLAND  PTSUNNY   62  46  56 SW12      30.07F
BELLAIRE       FAIR      59  44  57 CALM      30.08S
CADILLAC       LGT RAIN  51  50  96 W3        30.09F
CHARLEVOIX     FAIR      59  46  61 W8        30.10F
FRANKFORT      PTSUNNY   59  49  70 W8        30.09F
GAYLORD        CLOUDY    56  43  61 CALM      30.07S
GRAYLING       DRIZZLE   54  50  87 SW3       30.09S
HARBOR SPRINGS FAIR      60  46  59 SW7       30.07S
HOUGHTON LAKE  LGT RAIN  52  49  89 W5        30.10S
MANISTEE       FAIR      55  48  76 NW6       30.10F
OSCODA         LGT RAIN  55  55  97 SW3       30.07S
PELLSTON       FAIR      60  41  49 W5        30.07S
ROGERS CITY    FAIR      57  48  72 NW8       30.07S
TRAVERSE CITY  PTSUNNY   58  48  69 W9        30.07F
$$
MIZ007>008-015-152200-
EASTERN UPPER MICHIGAN

CITY           SKY/WX    TMP DP  RH WIND       PRES   REMARKS
KINROSS        FAIR      57  45  62 N13       30.06R
MACKINAC ISLAN PTSUNNY   59  47  63 W9        30.06S
NEWBERRY       FAIR      57  44  60 NW8       30.06S
S. S. MARIE    FAIR      57  40  52 NW9G20    30.05F
MUNISING         N/A     59  47  64 N9        30.08S
$$
MIZ004>006-011>014-085-152200-
CENTRAL UPPER MICHIGAN

CITY           SKY/WX    TMP DP  RH WIND       PRES   REMARKS
MANISTIQUE     CLOUDY    55  49  82 W5        30.07F
ESCANABA       FAIR      57  46  67 S7        30.07F
MENOMINEE      CLOUDY    63  45  51 N6        30.07S
SAWYER-GWINN   PTSUNNY   54  50  87 NE10      30.08S
$$
MIZ001>003-009>011-084-152200-
WESTERN UPPER MICHIGAN

CITY           SKY/WX    TMP DP  RH WIND       PRES   REMARKS
IRON MOUNTAIN  PTSUNNY   59  42  53 W15       30.07F
HOUGHTON       PTSUNNY   53  42  66 W20       30.09S
COPPER HARBOR    N/A     54  44  69 N20G28    30.08R
IRONWOOD       CLOUDY    52  39  62 NW13G18   30.12F
$$

ABBREVIATIONS USED IN REMARKS
   TC - TEMPERATURE IN CELSIUS
  WCI - WIND CHILL INDEX
   HX - HEAT INDEX
  VSB - VISIBILITY




USA.gov is the U.S. government's official web portal to all federal, state and local government web resources and services.